Date String (YYYY-MM-DD hh:mm:ss) UTC,Instrument flags,Ambient pressure (hPa),Sample flow (lpm),Bypass flow (lpm),Sample temperature (°C),Ambient temperature (°C),ASC tube jacket temperature (°C),LED temperature (°C),Box temperature (°C),Sample RH (%),Span deviation,Mass concentration (μg/m³),Mass concentration (μg/m³),Mass concentration (μg/m³)
DateTimeUTC,F1_M11,P_M11,Q1_M11,Q2_M11,T1_M11,T2_M11,T3_M11,T4_M11,T5_M11,U1_M11,ZSPAN_M11,X2_M11,X0_M11,X1_M11
2022-06-29 14:00:00,,0829.7,5.01,0.00,29.5,28.4,00.0,38.3,31.5,19.6,0000.0,0004.59,0013.50,0003.62
2022-06-29 14:01:00,,0829.7,5.00,0.00,29.5,28.5,00.0,38.3,31.5,19.9,0000.0,0004.60,0013.61,0003.63
2022-06-29 14:02:00,,0829.7,4.99,0.00,29.6,28.6,00.0,38.3,31.5,19.7,0000.0,0004.63,0013.62,0003.63
2022-06-29 14:03:00,,0829.7,5.01,0.00,29.6,28.7,00.0,38.3,31.6,20.3,0000.0,0004.63,0013.80,0003.64
2022-06-29 14:04:00,,0829.7,4.98,0.00,29.6,28.7,00.0,38.4,31.6,18.3,0000.0,0004.62,0013.35,0003.66
2022-06-29 14:05:00,,0829.8,5.01,0.00,29.7,28.8,00.0,38.4,31.6,17.1,0000.0,0004.62,0011.63,0003.67
2022-06-29 14:06:00,,0829.7,5.00,0.00,29.7,28.8,00.0,38.4,31.7,17.6,0000.0,0004.62,0011.79,0003.69
2022-06-29 14:07:00,,0829.8,5.01,0.00,29.7,28.9,00.0,38.4,31.7,18.0,0000.0,0004.58,0011.74,0003.70
2022-06-29 14:08:00,,0829.7,5.00,0.00,29.7,28.3,00.0,38.4,31.6,17.9,0000.0,0004.49,0011.02,0003.71
2022-06-29 14:09:00,,0829.8,5.01,0.00,29.6,27.5,00.0,38.3,31.4,17.0,0000.0,0004.42,0010.43,0003.72
2022-06-29 14:10:00,,0829.8,4.99,0.00,29.6,27.3,00.0,38.3,31.2,17.5,0000.0,0004.41,0010.68,0003.72
2022-06-29 14:11:00,,0829.7,5.00,0.00,29.5,27.3,00.0,38.3,31.2,17.7,0000.0,0004.39,0011.05,0003.73
2022-06-29 14:12:00,,0829.7,5.00,0.00,29.5,27.4,00.0,38.3,31.2,16.8,0000.0,0004.34,0010.81,0003.72
2022-06-29 14:13:00,,0829.8,5.01,0.00,29.5,27.5,00.0,38.3,31.2,16.7,0000.0,0004.25,0010.46,0003.71
2022-06-29 14:14:00,,0829.7,5.01,0.00,29.5,27.7,00.0,38.3,31.3,16.4,0000.0,0004.20,0010.54,0003.71
2022-06-29 14:15:00,,0829.8,5.00,0.00,29.5,27.9,00.0,38.3,31.3,16.5,0000.0,0004.22,0010.72,0003.71
2022-06-29 14:16:00,,0829.8,5.00,0.00,29.5,28.0,00.0,38.3,31.3,16.6,0000.0,0004.24,0011.08,0003.72
2022-06-29 14:17:00,,0829.8,5.01,0.00,29.5,28.1,00.0,38.3,31.4,16.9,0000.0,0004.26,0010.81,0003.72
2022-06-29 14:18:00,,0829.8,5.00,0.00,29.5,28.3,00.0,38.3,31.4,17.3,0000.0,0004.25,0010.67,0003.72
2022-06-29 14:19:00,,0829.8,4.99,0.00,29.5,28.4,00.0,38.3,31.4,17.8,0000.0,0004.27,0011.33,0003.71
2022-06-29 14:20:00,,0829.8,5.01,0.00,29.5,28.5,00.0,38.3,31.5,17.1,0000.0,0004.27,0011.65,0003.69
2022-06-29 14:21:00,,0829.9,5.00,0.00,29.6,28.5,00.0,38.3,31.5,17.8,0000.0,0004.25,0011.84,0003.68
2022-06-29 14:22:00,,0829.9,5.00,0.00,29.6,28.6,00.0,38.3,31.5,17.0,0000.0,0004.23,0011.26,0003.68
2022-06-29 14:23:00,,0829.9,4.99,0.00,29.6,28.7,00.0,38.3,31.6,17.5,0000.0,0004.26,0011.36,0003.68
2022-06-29 14:24:00,,0829.9,4.99,0.00,29.6,28.8,00.0,38.4,31.6,17.4,0000.0,0004.30,0011.75,0003.67
2022-06-29 14:25:00,,0829.8,5.01,0.00,29.7,28.8,00.0,38.4,31.7,17.0,0000.0,0004.36,0011.36,0003.67
2022-06-29 14:26:00,,0829.8,5.01,0.00,29.7,28.5,00.0,38.4,31.6,17.5,0000.0,0004.35,0011.22,0003.65
2022-06-29 14:27:00,,0829.8,4.99,0.00,29.6,27.7,00.0,38.3,31.4,17.2,0000.0,0004.32,0010.82,0003.64
2022-06-29 14:28:00,,0829.8,5.00,0.00,29.6,27.4,00.0,38.3,31.3,17.2,0000.0,0004.30,0011.77,0003.64
2022-06-29 14:29:00,,0829.8,4.99,0.00,29.5,27.4,00.0,38.3,31.3,17.1,0000.0,0004.29,0011.72,0003.63
2022-06-29 14:30:00,,0829.8,5.01,0.00,29.5,27.5,00.0,38.3,31.3,17.4,0000.0,0004.23,0011.06,0003.61
2022-06-29 14:31:00,,0829.9,5.00,0.00,29.5,27.7,00.0,38.3,31.3,17.7,0000.0,0004.23,0010.98,0003.61
2022-06-29 14:32:00,,0829.8,5.01,0.00,29.5,27.9,00.0,38.3,31.3,18.0,0000.0,0004.24,0010.48,0003.62
2022-06-29 14:33:00,,0829.8,5.01,0.00,29.5,28.0,00.0,38.3,31.4,18.8,0000.0,0004.25,0010.46,0003.61
2022-06-29 14:34:00,,0829.9,5.00,0.00,29.5,28.1,00.0,38.3,31.4,18.6,0000.0,0004.24,0010.98,0003.62
2022-06-29 14:35:00,,0829.9,4.99,0.00,29.5,28.3,00.0,38.3,31.4,20.5,0000.0,0004.24,0010.99,0003.62
2022-06-29 14:36:00,,0829.9,5.00,0.00,29.5,28.4,00.0,38.3,31.5,19.1,0000.0,0004.23,0011.21,0003.64
2022-06-29 14:37:00,,0829.9,5.00,0.00,29.6,28.5,00.0,38.3,31.5,18.0,0000.0,0004.26,0011.89,0003.66
2022-06-29 14:38:00,,0829.9,5.00,0.00,29.6,28.6,00.0,38.3,31.6,18.6,0000.0,0004.32,0012.44,0003.70
2022-06-29 14:39:00,,0829.9,4.99,0.00,29.6,28.7,00.0,38.3,31.6,19.0,0000.0,0004.32,0011.95,0003.71
2022-06-29 14:40:00,,0829.8,5.00,0.00,29.7,28.7,00.0,38.4,31.6,18.9,0000.0,0004.32,0011.35,0003.73
2022-06-29 14:41:00,,0829.9,5.00,0.00,29.7,28.4,00.0,38.3,31.5,18.9,0000.0,0004.37,0011.34,0003.77
2022-06-29 14:42:00,,0829.9,5.00,0.00,29.6,27.7,00.0,38.3,31.4,19.2,0000.0,0004.39,0011.32,0003.79
2022-06-29 14:43:00,,0829.8,5.01,0.00,29.6,27.4,00.0,38.3,31.3,19.5,0000.0,0004.41,0011.25,0003.80
2022-06-29 14:44:00,,0829.9,4.99,0.00,29.5,27.5,00.0,38.3,31.3,19.8,0000.0,0004.41,0011.17,0003.82
2022-06-29 14:45:00,,0829.9,4.99,0.00,29.5,27.6,00.0,38.3,31.3,18.3,0000.0,0004.40,0010.32,0003.83
2022-06-29 14:46:00,,0829.9,5.01,0.00,29.5,27.7,00.0,38.3,31.3,17.0,0000.0,0004.42,0009.44,0003.83
2022-06-29 14:47:00,,0829.9,5.01,0.00,29.5,27.9,00.0,38.3,31.3,17.6,0000.0,0004.39,0009.11,0003.81
2022-06-29 14:48:00,,0829.9,5.00,0.00,29.5,28.0,00.0,38.3,31.4,17.0,0000.0,0004.31,0008.60,0003.78
2022-06-29 14:49:00,,0829.8,5.00,0.00,29.5,28.2,00.0,38.3,31.4,16.9,0000.0,0004.22,0008.38,0003.74
2022-06-29 14:50:00,,0829.9,5.02,0.00,29.5,28.3,00.0,38.3,31.4,17.8,0000.0,0004.21,0008.29,0003.71
2022-06-29 14:51:00,,0829.9,4.99,0.00,29.5,28.4,00.0,38.3,31.5,18.0,0000.0,0004.21,0008.41,0003.70
2022-06-29 14:52:00,,0829.9,5.00,0.00,29.6,28.5,00.0,38.3,31.5,17.8,0000.0,0004.22,0008.91,0003.68
2022-06-29 14:53:00,,0829.9,5.01,0.00,29.6,28.6,00.0,38.3,31.6,17.6,0000.0,0004.19,0008.83,0003.67
2022-06-29 14:54:00,,0829.8,5.01,0.00,29.6,28.7,00.0,38.3,31.6,16.3,0000.0,0004.14,0009.06,0003.64
2022-06-29 14:55:00,,0829.9,5.00,0.00,29.6,28.3,00.0,38.3,31.5,16.8,0000.0,0004.12,0009.24,0003.61
2022-06-29 14:56:00,,0829.9,5.00,0.00,29.6,27.6,00.0,38.3,31.3,16.6,0000.0,0004.11,0009.32,0003.57
2022-06-29 14:57:00,,0829.8,5.01,0.00,29.5,27.4,00.0,38.3,31.3,16.5,0000.0,0004.08,0009.25,0003.55
2022-06-29 14:58:00,,0829.8,4.99,0.00,29.5,27.5,00.0,38.3,31.3,17.5,0000.0,0004.09,0009.21,0003.54
2022-06-29 14:59:00,,0829.9,5.00,0.00,29.5,27.6,00.0,38.3,31.3,18.4,0000.0,0004.10,0009.41,0003.54
